When you browse on this site, cookies collect data to enhance your experience and personalize the content and advertising you see.
Visit our Privacy Policy to learn more. By continuing to use the site, you agree to this use of cookies and data.
  • en Suisse
  • Liste des pays
  • À 7 jours
  • Température de l'eau
  • Carte météo
  • Widgets météo
  • user-avatar
    Se connecter

    Météo par heure à Armavir

    Ce jour, 17 Octobre, Jeudi

    Heure Température Précipitation Vent Pression Humidité
    00:00 +15°C° 0 mm 1 m/s 690 mmHg 31%
    01:00 +14°C° 0 mm 1 m/s 691 mmHg 32%
    02:00 +14°C° 0 mm 1 m/s 691 mmHg 34%
    03:00 +14°C° 0 mm 1 m/s 691 mmHg 35%
    04:00 +13°C° 0 mm 1 m/s 691 mmHg 36%
    05:00 +13°C° 0 mm 1 m/s 691 mmHg 37%
    06:00 +13°C° 0 mm 1 m/s 691 mmHg 37%
    07:00 +16°C° 0 mm 1 m/s 691 mmHg 30%
    08:00 +20°C° 0 mm 1 m/s 692 mmHg 24%
    09:00 +23°C° 0 mm 1 m/s 693 mmHg 17%
    10:00 +24°C° 0 mm 1 m/s 693 mmHg 15%
    11:00 +25°C° 0 mm 1 m/s 693 mmHg 14%
    12:00 +27°C° 0 mm 1 m/s 693 mmHg 12%
    13:00 +27°C° 0 mm 1 m/s 692 mmHg 12%
    14:00 +28°C° 0 mm 2 m/s 692 mmHg 11%
    15:00 +28°C° 0 mm 2 m/s 692 mmHg 11%
    16:00 +26°C° 0 mm 2 m/s 692 mmHg 13%
    17:00 +23°C° 0 mm 1 m/s 691 mmHg 16%
    18:00 +20°C° 0 mm 1 m/s 691 mmHg 19%
    19:00 +19°C° 0 mm 1 m/s 691 mmHg 21%
    20:00 +19°C° 0 mm 1 m/s 691 mmHg 22%
    21:00 +18°C° 0 mm 1 m/s 691 mmHg 24%
    22:00 +16°C° 0 mm 1 m/s 691 mmHg 25%
    23:00 +16°C° 0 mm 1 m/s 690 mmHg 26%

    Demain, 18 Octobre, Vendredi

    Heure Température Précipitation Vent Pression Humidité
    00:00 +15°C° 0 mm 1 m/s 690 mmHg 27%
    01:00 +15°C° 0 mm 1 m/s 690 mmHg 27%
    02:00 +15°C° 0 mm 1 m/s 690 mmHg 26%
    03:00 +15°C° 0 mm 1 m/s 690 mmHg 26%
    04:00 +15°C° 0 mm 1 m/s 690 mmHg 25%
    05:00 +15°C° 0 mm 1 m/s 690 mmHg 25%
    06:00 +15°C° 0 mm 1 m/s 690 mmHg 24%
    07:00 +18°C° 0 mm 1 m/s 690 mmHg 21%
    08:00 +21°C° 0 mm 1 m/s 691 mmHg 18%
    09:00 +24°C° 0 mm 1 m/s 691 mmHg 16%
    10:00 +25°C° 0 mm 1 m/s 691 mmHg 15%
    11:00 +26°C° 0 mm 1 m/s 691 mmHg 14%
    12:00 +28°C° 0 mm 1 m/s 691 mmHg 14%
    13:00 +28°C° 0 mm 2 m/s 691 mmHg 14%
    14:00 +29°C° 0 mm 2 m/s 690 mmHg 15%
    15:00 +29°C° 0 mm 2 m/s 690 mmHg 16%
    16:00 +26°C° 0.1 mm 2 m/s 689 mmHg 21%
    17:00 +24°C° 0.1 mm 1 m/s 689 mmHg 26%
    18:00 +21°C° 0.1 mm 1 m/s 689 mmHg 31%
    19:00 +20°C° 0.1 mm 1 m/s 689 mmHg 33%
    20:00 +20°C° 0.1 mm 1 m/s 689 mmHg 36%
    21:00 +19°C° 0.1 mm 1 m/s 689 mmHg 39%
    22:00 +19°C° 0 mm 1 m/s 689 mmHg 41%
    23:00 +18°C° 0 mm 1 m/s 689 mmHg 44%

    Après-demain, 19 Octobre, Samedi

    Heure Température Précipitation Vent Pression Humidité
    00:00 +18°C° 0 mm 1 m/s 689 mmHg 47%
    01:00 +18°C° 0 mm 1 m/s 689 mmHg 48%
    02:00 +16°C° 0 mm 1 m/s 689 mmHg 50%
    03:00 +16°C° 0 mm 1 m/s 689 mmHg 51%
    04:00 +16°C° 0 mm 1 m/s 689 mmHg 50%
    05:00 +15°C° 0 mm 1 m/s 689 mmHg 50%
    06:00 +15°C° 0 mm 1 m/s 689 mmHg 49%
    07:00 +19°C° 0 mm 1 m/s 689 mmHg 43%
    08:00 +21°C° 0 mm 1 m/s 690 mmHg 36%
    09:00 +23°C° 0 mm 1 m/s 690 mmHg 30%
    10:00 +25°C° 0 mm 1 m/s 690 mmHg 28%
    11:00 +26°C° 0 mm 1 m/s 690 mmHg 26%
    12:00 +27°C° 0 mm 1 m/s 690 mmHg 24%
    13:00 +28°C° 0 mm 1 m/s 690 mmHg 24%
    14:00 +28°C° 0 mm 2 m/s 689 mmHg 24%
    15:00 +28°C° 0 mm 2 m/s 689 mmHg 24%
    16:00 +26°C° 0.3 mm 2 m/s 689 mmHg 31%
    17:00 +24°C° 0.3 mm 1 m/s 689 mmHg 38%
    18:00 +21°C° 0.3 mm 1 m/s 689 mmHg 45%
    19:00 +21°C° 0.2 mm 1 m/s 689 mmHg 46%
    20:00 +20°C° 0.2 mm 1 m/s 689 mmHg 48%
    21:00 +18°C° 0.2 mm 0 m/s 689 mmHg 50%
    22:00 +18°C° 0.1 mm 0 m/s 690 mmHg 50%
    23:00 +18°C° 0.1 mm 0 m/s 690 mmHg 50%

    20 Octobre, Dimanche

    Heure Température Précipitation Vent Pression Humidité
    00:00 +17°C° 0.1 mm 0 m/s 690 mmHg 50%
    01:00 +19°C° 0 mm 1 m/s 690 mmHg 51%
    02:00 +19°C° 0 mm 1 m/s 690 mmHg 51%
    03:00 +19°C° 0 mm 1 m/s 690 mmHg 52%
    04:00 +18°C° 0 mm 1 m/s 690 mmHg 53%
    05:00 +18°C° 0 mm 1 m/s 690 mmHg 54%
    06:00 +18°C° 0 mm 1 m/s 690 mmHg 55%
    07:00 +19°C° 0 mm 1 m/s 690 mmHg 50%
    08:00 +21°C° 0 mm 1 m/s 690 mmHg 46%
    09:00 +23°C° 0 mm 1 m/s 691 mmHg 41%
    10:00 +24°C° 0 mm 1 m/s 691 mmHg 38%
    11:00 +25°C° 0 mm 1 m/s 691 mmHg 36%
    12:00 +26°C° 0 mm 2 m/s 690 mmHg 33%
    13:00 +26°C° 0 mm 2 m/s 690 mmHg 32%
    14:00 +27°C° 0 mm 2 m/s 690 mmHg 30%
    15:00 +27°C° 0 mm 2 m/s 690 mmHg 29%
    16:00 +25°C° 0.1 mm 2 m/s 690 mmHg 34%
    17:00 +24°C° 0.1 mm 2 m/s 690 mmHg 39%
    18:00 +21°C° 0.1 mm 2 m/s 690 mmHg 44%
    19:00 +20°C° 0.1 mm 2 m/s 690 mmHg 47%
    20:00 +20°C° 0.1 mm 2 m/s 690 mmHg 49%
    21:00 +19°C° 0.1 mm 2 m/s 690 mmHg 52%
    22:00 +19°C° 0 mm 2 m/s 690 mmHg 55%
    23:00 +19°C° 0 mm 1 m/s 690 mmHg 57%

    21 Octobre, Lundi

    Heure Température Précipitation Vent Pression Humidité
    00:00 +19°C° 0 mm 1 m/s 690 mmHg 60%
    01:00 +18°C° 0 mm 1 m/s 690 mmHg 62%
    02:00 +16°C° 0 mm 1 m/s 690 mmHg 64%
    03:00 +16°C° 0 mm 1 m/s 690 mmHg 66%
    04:00 +15°C° 0 mm 2 m/s 690 mmHg 67%
    05:00 +15°C° 0 mm 2 m/s 690 mmHg 68%
    06:00 +14°C° 0 mm 2 m/s 690 mmHg 69%
    07:00 +16°C° 0 mm 1 m/s 690 mmHg 63%
    08:00 +19°C° 0 mm 1 m/s 691 mmHg 57%
    09:00 +20°C° 0 mm 1 m/s 691 mmHg 50%
    10:00 +22°C° 0.1 mm 1 m/s 691 mmHg 47%
    11:00 +23°C° 0.1 mm 1 m/s 691 mmHg 44%
    12:00 +24°C° 0.1 mm 1 m/s 691 mmHg 41%
    13:00 +24°C° 0.1 mm 2 m/s 691 mmHg 39%
    14:00 +25°C° 0.1 mm 2 m/s 690 mmHg 37%
    15:00 +25°C° 0.1 mm 2 m/s 690 mmHg 36%
    16:00 +24°C° 0.1 mm 2 m/s 690 mmHg 39%
    17:00 +21°C° 0.1 mm 2 m/s 690 mmHg 43%
    18:00 +20°C° 0.1 mm 2 m/s 690 mmHg 47%
    19:00 +19°C° 0.1 mm 2 m/s 690 mmHg 50%
    20:00 +18°C° 0.1 mm 2 m/s 690 mmHg 53%
    21:00 +18°C° 0.1 mm 2 m/s 690 mmHg 56%
    22:00 +17°C° 0 mm 2 m/s 690 mmHg 58%
    23:00 +17°C° 0 mm 2 m/s 690 mmHg 59%

    22 Octobre, Mardi

    Heure Température Précipitation Vent Pression Humidité
    00:00 +16°C° 0 mm 2 m/s 690 mmHg 61%
    01:00 +16°C° 0 mm 2 m/s 690 mmHg 63%
    02:00 +15°C° 0 mm 2 m/s 690 mmHg 65%
    03:00 +14°C° 0 mm 2 m/s 689 mmHg 67%
    04:00 +14°C° 0 mm 1 m/s 690 mmHg 68%
    05:00 +14°C° 0 mm 1 m/s 690 mmHg 69%
    06:00 +13°C° 0 mm 1 m/s 690 mmHg 70%
    07:00 +15°C° 0 mm 1 m/s 690 mmHg 64%
    08:00 +16°C° 0 mm 2 m/s 690 mmHg 58%
    09:00 +18°C° 0 mm 2 m/s 691 mmHg 51%
    10:00 +19°C° 0 mm 2 m/s 690 mmHg 48%
    11:00 +20°C° 0 mm 2 m/s 690 mmHg 44%
    12:00 +23°C° 0 mm 2 m/s 690 mmHg 41%
    13:00 +23°C° 0 mm 2 m/s 690 mmHg 39%
    14:00 +24°C° 0 mm 2 m/s 689 mmHg 37%
    15:00 +24°C° 0 mm 2 m/s 689 mmHg 35%
    16:00 +21°C° 0 mm 2 m/s 689 mmHg 39%
    17:00 +21°C° 0 mm 1 m/s 689 mmHg 43%
    18:00 +19°C° 0 mm 1 m/s 688 mmHg 47%
    19:00 +19°C° 0 mm 1 m/s 688 mmHg 49%
    20:00 +18°C° 0 mm 1 m/s 689 mmHg 50%
    21:00 +16°C° 0 mm 1 m/s 689 mmHg 52%
    22:00 +16°C° 0 mm 1 m/s 688 mmHg 54%
    23:00 +16°C° 0 mm 1 m/s 688 mmHg 56%
    Voir plus